Погода Сумы

Погода Сумы : погода сейчас, прогноз погоды и архив. Всё, что Вы хотите узнать о погоде Сумы!

Хотите узнать прогноз погоды Сумы? Тогда Вам сюда: Погода Сумы

Поиск расширенной информации на нашем сайте:

Другие новости

Новости СМИ2

Главная страница сайта

Новости сайта

03.07.2017

Напоминаем, что на нашем специализированном сайте Метеоцентр.Азия вы можете получить высокодетализированные автоматические прогнозы погоды по пунктам России, СНГ и мира в авиационном формате (включающие направление и скорость ветра, видимость, явления погоды, количество и форму облачности, нижнюю и верхнюю границу облачности).

Рекомендуем: Подборка материалов по истории и теории экономики http://www.econbook.ru/

Погода Сумы - сегодня

Время (UTC), дата Ветер
(°,м/с) 
Видим.   Явления Облачность Т
(°С)
Тd
(°С)
f(%) Тe
(°С)
Pmin
(гПа)
dP
(гПа)
Po
(мм)
O2
(г/м3)
Тmin Tmax R s Состояние
почвы
03 21.02.18 тихо ()   10 км  слаб. ливневой снег  10/8 330 м кучево-дожд., средняя 
[Cb calv|Ac und]
-7.8 -9.6 87 -8  1026.1  0.1  752  313           
06 21.02.18 тихо ()   10 км  слаб. ливневой снег  10/6 300 м кучево-дожд., средняя 
[Cb calv|Ac und]
-8.2 -10.1 86 -8  1026.5  0.4  752  313  -12    0.0  14  равномерный
сухой снег
100% 
09 21.02.18 280 (З) 10 км  {ливн. осадки}  6/4 300 м средняя 
[Sc|Ac trans]
-5.2 -11.1 63 -5  1026.6  0.4  752  310           
12 21.02.18 300 (СЗ) 10 км  {ливн. осадки}  8/0 средняя 
[Ac trans]
-4.4 -12.4 54 -6  1026  -0.6  752  309      0.0     
15 21.02.18 340 (С) 10 км    9/0 средняя 
[Ac trans]
-6.2 -12.1 63 -6  1025.5  -0.6  751  311           
18 21.02.18 060 (СВ) 10 км    10/0 средняя 
[Ac und]
-6.8 -12.5 64 -8  1026  0.4  752  312    -3.6  0.0     
21 21.02.18 100 (В) 4000 м  слаб. ливневой снег  10/6 300 м кучево-дожд., средняя 
[Cb calv|Ac und]
-7.3 -11.2 74 -9  1026.3  0.3  752  312           
00 22.02.18 080 (В) 10 км  слаб. ливневой снег  10/6 300 м кучево-дожд., средняя 
[Cb calv|Ac und]
-8.2 -9.6 90 -8  1026.6  0.2  752  313      0.4     
03 22.02.18 080 (В) 4000 м  слаб. снег{ливн. осадки}  10/9 270 м средняя 
[Frnb|As op]
-8.3 -9.3 92 -10  1026.3  -0.3  752  313           
09 22.02.18 130 (ЮВ) 10 км    8/0 средняя, верхняя 
[Ac trans|Ci fib]
-5.9 -9.8 74 -8  1026.7  0.2  752  311           
12 22.02.18 150 (ЮВ) 10 км    8/4 1000 м средняя 
[Sc|Ac trans]
-3.6 -10.6 58 -5  1026.3  -0.2  752  308           
15 22.02.18 060 (СВ) 10 км    6/0 верхняя 
[Ci fib]
-5.8 -13.1 56 -8  1026.3  -0.2  752  311           
21 22.02.18 080 (В) 10 км    10/0 средняя 
[Ac und]
-10.2 -14.3 72 -13  1027.5  753  316           
00 23.02.18 110 (В) 10 км    10/0 средняя 
[Ac und]
-10.7 -14.8 72 -14  1027.7  0.1  753  317           
03 23.02.18 080 (В) 10 км    10/0 средняя 
[Ac und]
-11 -14.9 73 -14  1027.2  -0.5  752  317           
06 23.02.18 080 (В) 10 км    9/4 1000 м средняя 
[Sc|Ac trans]
-11.9 -15.4 75 -14  1027.5  0.2  752  318  -11.9      13  равномерный
сухой снег
100% 
09 23.02.18 120 (ЮВ) 10 км    4/0 верхняя 
[Ci fib]
-7.6 -14.8 56 -10  1026.9  -0.2  752  313           
12 23.02.18 150 (ЮВ) 20000 м    8/0 средняя 
[Ac trans]
-5.2 -14.9 46 -5  1026  -0.6  752  310           
15 23.02.18 070 (В) 10 км    8/4 1000 м средняя 
[Sc|Ac trans]
-7.6 -16 51 -11  1025.5  -0.7  751  313           
18 23.02.18 100 (В) 10 км    8/0 средняя 
[Ac trans]
-11.5 -16.6 66 -16  1025.9  751  317    -5.2       
21 23.02.18 110 (В) 10 км    8/0 средняя 
[Ac trans]
-13.2 -17.3 71 -18  1025.6  -0.4  751  319           
00 24.02.18 100 (В) 10 км    8/0 средняя 
[Ac trans]
-15.2 -18.9 73 -19  1025.2  -0.6  751  322           
03 24.02.18 110 (В) 10 км    6/0 средняя 
[Ac trans]
-15.4 -18.5 77 -21  1024.3  -0.9  750  322           
06 24.02.18 090 (В) 10 км    10/0 средняя 
[Ac und]
-14.4 -17.5 77 -19  1024.4  0.2  750  320  -15.4      13  равномерный
сухой снег
100% 
09 24.02.18 090 (В) 10 км    10/0 средняя 
[Ac und]
-11 -15.7 68 -15  1023.8  -0.3  750  316           
Время (UTC), дата Ветер
(°,м/с) 
Видим.   Явления Облачность Т
(°С)
Тd
(°С)
f(%) Тe
(°С)
Pmin
(гПа)
dP
(гПа)
Po
(мм)
O2
(г/м3)
Тmin Tmax R s Состояние
почвы

Для получения пояснительной информации подведите курсор к названию столбца.

ПОГОДА Сумы - архив

Всё, что Вы хотите узнать о погоде Сумы - удобно и подробно!

Выберите нужную дату (начиная с 1 января 2015* года) и нажмите кнопку "Найти".
Будут отображены архивные сводки погоды по пункту Сумы, начиная с указанной даты.


Отображать данные в формате CSV (для использования в таблицах Excel)


Внимание! Наш архив погоды предназначен исключительно для личного некоммерческого использования в познавательных целях. Если Вам необходимы официальные справки о состоянии погоды (для производственных, юридических, коммерческих и т.п. целей), обращайтесь в органы Росгидромета.

*Примечание: данная дата относится к архиву по метеостанциям СССР (Россия, СНГ, Балтия).
Архив по метеостанциям Зарубежной Европы и Азии (кроме Китая) хранится 10 дней, по другим регионам земного шара (Китай, Африка, Америка, Австралия, Океания) - 1 день.

Сумы - район местоположения метеостанции


Название, широта, долгота, высота метеостанции:
Сумы 50.9°ш. 34.7°д. 181 м над ур. моря [Украина]

Дополнительная информация

В oтличие oт бoльшинства пoгoдных сайтoв мы публикуем пoдрoбную метеoинфoрмацию в детальнoм прoфессиoнальнoм фoрмате.

Характеристики температуры и влажнoсти вoздуха измеряются на высoте 2 м в тени вдали oт зданий и деревьев.
Скoрoсть ветра измеряется на высoте 10 м (на урoвне рoста челoвека скoрoсть ветра ниже в 1.5-2 раза). Если метеoстанция нахoдится в гoрoде или в лесу, тo скoрoсть ветра занижена на 2-4 м/с пo сравнению с oткрытым местoм. Скoрoсть ветра над акватoриями крупных рек и oзёр, а также на вершинах хoлмoв на 2-5 м/с выше, чем в oбычных услoвиях.
Атмoсфернoе давление в разных тoчках местнoсти мoжет значительнo oтличаться oт давления на метеoстанции, в зависимoсти oт услoвий рельефа (при пoдъёме на 10 м давление пoнижается примернo на 1 мм рт.ст.).